Location: Broletto
(44.6000°N, 10.5833°E)
Time: 01:31:53
(UTC+00:00)

Cosmos 2237 Rocket - Pass Details

Date: 18 April 2021
Orbit: 836 x 849 km, 71.0° (Epoch: 07 May)

Event Time Altitude Azimuth Distance (km) Brightness Sun altitude
Rises 19:34:56 0° 339° (NNW) 3,404 6.3 -15.1°
Reaches altitude 10° 19:37:32 10° 346° (NNW) 2,464 5.3 -15.5°
Maximum altitude 19:42:53 42° 57° (ENE) 1,187 2.8 -16.3°
Enters shadow 19:45:32 26° 110° (ESE) 1,598 3.1 -16.7°
